Location: Unspecified
(44.4377°N, 88.0525°W)
Time: 10:09:57
(UTC-05:00)

Okean 3 - Pass Details

Date: 25 April 2019
Orbit: 576 x 602 km, 82.5° (Epoch: 18 May)

Event Time Altitude Azimuth Distance (km) Brightness Sun altitude
Exits shadow 01:27:30 27° 13° (NNE) 1,143 5.4 -31.8°
Drops below altitude 10° 01:29:29 10° 11° (N) 1,918 6.9 -31.8°
Sets 01:31:41 0° 10° (N) 2,819 8.1 -31.7°
